Regional Weather Roundup
Issued by NWS

Home | Current Version | Previous Version | Text Only | Print | Product List | Glossary On
Versions: 1 2 3 4 5 6 7 8 9 10 11 12 13 14 15 16 17 18 19 20 21 22 23 24 25 26 27 28 29 30 31 32 33 34 35 36 37 38 39 40 41 42 43 44 45 46 47 48 49 50
000
ASUS43 KMKX 281500
RWRWI

WISCONSIN REGIONAL WEATHER ROUNDUP
NATIONAL WEATHER SERVICE MILWAUKEE/SULLIVAN WI
900 AM CST SUN DEC 28 2014

NOTE: "FAIR" INDICATES FEW OR NO CLOUDS BELOW 12,000 FEET WITH NO
SIGNIFICANT WEATHER AND/OR OBSTRUCTIONS TO VISIBILITY.

WIZ001-002-006>008-014>016-023>028-281600-
NORTHWEST WISCONSIN

CITY           SKY/WX    TMP DP  RH WIND       PRES   REMARKS
SUPERIOR ARPT  MOCLDY    16   9  74 N10       30.15R WCI   4
ASHLAND        MOCLDY    16  12  84 W6        30.11R WCI   7
HAYWARD        CLOUDY    16  13  88 CALM      30.09R FOG
SIREN          CLOUDY    16  13  87 CALM      30.11R
CUMBERLAND     LGT SNOW  14  10  85 W3        30.09R
RICE LAKE      FLURRIES  14  10  85 W3        30.11R
CHETEK         FLURRIES  13  10  87 SW5       30.11R WCI   5
LADYSMITH      FLURRIES  12  10  90 CALM      30.10R
EAU CLAIRE     NOT AVBL
MENOMONIE      MOCLDY     4   1  86 CALM      30.13R FOG
NEW RICHMOND   CLOUDY    11   8  89 CALM      30.12R
OSCEOLA        FLURRIES  13  10  88 CALM      30.15R
$$

WIZ003>005-009-010-017-018-281600-
NORTH CENTRAL WISCONSIN

CITY           SKY/WX    TMP DP  RH WIND       PRES   REMARKS
MANITOWISH WTR CLOUDY    11   9  93 W3        30.02R FOG
ARBOR VITAE    MOCLDY    14  11  89 CALM      30.02R
WOODRUFF       MOCLDY    14  11  89 CALM      30.02R
RHINELANDER    CLOUDY    10   7  87 W7        30.04R WCI  -1
EAGLE RIVER    CLOUDY    12   8  84 CALM      30.01R
LAND O LAKES   LGT SNOW  15  12  89 W6        30.01R WCI   6
PHILLIPS       FLURRIES  10   8  90 CALM      30.04R
TOMAHAWK       CLOUDY    10   8  91 CALM      30.05R FOG
MEDFORD        LGT SNOW  10   8  89 CALM      30.06R
MERRILL        LGT SNOW  11   9  90 W5        30.07R WCI   3
$$

WIZ029-030-035-036-043>047-281600-
CENTRAL WISCONSIN

CITY           SKY/WX    TMP DP  RH WIND       PRES   REMARKS
WAUSAU         CLOUDY    12  10  92 W5        30.08R FOG     WCI   4
MOSINEE        CLOUDY    12  12 100 W6        30.10R FOG     WCI   3
MARSHFIELD     MOSUNNY   10   8  92 SW3       30.10R
STEVENS POINT  CLOUDY    14  12  94 NW6       30.11R FOG     WCI   5
WAUPACA        CLOUDY    19  14  80 W5        30.13R WCI  12
WAUTOMA        NOT AVBL
WISC RAPIDS    CLOUDY    14   9  80 W5        30.13R WCI   6
CAMP DOUGLAS   NOT AVBL
$$

WIZ011>013-019>022-031-037>040-048>050-281600-
NORTHEAST WISCONSIN

CITY           SKY/WX    TMP DP  RH WIND       PRES   REMARKS
ANTIGO         LGT SNOW   9   8  93 W7        30.06R WCI  -2
SHAWANO        CLOUDY    17  12  80 W6        30.11R WCI   9
OCONTO         SUNNY     17  13  83 W8        30.10R WCI   7
STURGEON BAY   SUNNY     19  12  73 W9        30.10R WCI   9
GREEN BAY      MOSUNNY   20  15  81 W7        30.12R WCI  11
MANITOWOC      NOT AVBL
APPLETON       PTSUNNY   18  14  86 W10       30.12R WCI   6
CLINTONVILLE   CLOUDY    18  12  79 W6        30.11R WCI   9
OSHKOSH        SUNNY     19  13  77 W8        30.14R WCI   9
$$

WIZ032>034-041-042-053>061-281600-
SOUTHWEST WISCONSIN

CITY           SKY/WX    TMP DP  RH WIND       PRES   REMARKS
LA CROSSE      CLOUDY    17  11  77 SW7       30.16R WCI   8
SPARTA         MOSUNNY   12   9  87 CALM      30.15R
VIROQUA        SUNNY     16  15  98 SW7       30.10S WCI   6
BOSCOBEL       SUNNY     18  13  80 S5        30.18R WCI  11
PRAIRIE DU CHI SUNNY     18  13  81 CALM      30.18R
PLATTEVILLE    SUNNY     19  16  91 CALM      30.16R
$$

WIZ056-057-062-063-064-067-068-281600-
SOUTH CENTRAL WISCONSIN

CITY           SKY/WX    TMP DP  RH WIND       PRES   REMARKS
REEDSBURG      SUNNY     17  13  82 W3        30.13R
BARABOO/DELLS  SUNNY     18  13  81 W6        30.12R WCI  10
LONE ROCK      NOT AVBL
MINERAL POINT  SUNNY     19  16  86 S5        30.14R WCI  13
MADISON        MOSUNNY   21  13  71 VRB5      30.15R WCI  15
MIDDLETON      SUNNY     21  14  73 W5        30.16R WCI  14
WATERTOWN      SUNNY     20  16  82 W6        30.15R WCI  13
MONROE         SUNNY     19  18  93 SW8       30.14R WCI   9
JANESVILLE     SUNNY     21  16  79 W6        30.16R WCI  14
$$

WIZ051-052-058>065-066-070>072-281600-
SOUTHEAST WISCONSIN

CITY           SKY/WX    TMP DP  RH WIND       PRES   REMARKS
MILWAUKEE      MOSUNNY   24  14  65 W7        30.14R WCI  16
WAUKESHA       SUNNY     19  16  86 W5        30.15R WCI  13
MILWAUKEE/TIMM SUNNY     23  14  68 W12       30.14S WCI  12
RACINE         SUNNY     23  17  78 W8        30.17R WCI  14
BURLINGTON     SUNNY     19  15  82 W6        30.15R WCI  11
KENOSHA        FAIR      23  18  81 W9        30.15R WCI  13
FOND DU LAC    SUNNY     21  13  71 W5        30.15R WCI  15
SHEBOYGAN      SUNNY     23  16  74 W13       30.13R WCI  11
WEST BEND      SUNNY     23  14  68 W8        30.12R WCI  14
JUNEAU         SUNNY     19  14  81 SW7       30.15R WCI  10
$$

LSZ147-162-281600-
LAKE SUPERIOR

STATION/POSITION TIME  TEMP    WIND        PRES    WAVE
                       AIR SEA DIR/SP/G            HT/PER
                 (UTC) (F)     (DEG/KT/KT) (MB)    (FT/S)
DEVILS ISLAND    1400   17     320/ 17/ 20 1020.4R
PORT WING        1400   20     320/ 15/ 19 1019.6R
SAXON HARBOR     1400   18     210/  5/  7 1019.0R
$$

LMZ867-665-643>646-281600-
LAKE MICHIGAN

STATION/POSITION TIME  TEMP    WIND        PRES    WAVE
                       AIR SEA DIR/SP/G            HT/PER
                 (UTC) (F)     (DEG/KT/KT) (MB)    (FT/S)
CHAMBERS ISLAND  1400   19     230/  6/ 14 1018.3S
NORTHPORT PIER   1403   22     290/  6/ 13 1017.9R
SISTER BAY       1413          280/ 13/ 15   N/A
ALGOMA LAKESHORE 1315          320/ 10/ 14   N/A
KEWAUNEE LAKESHO 1400   21     290/  9/ 13 1017.9R
SHEBOYGAN LAKESH 1400   22 37  270/ 15/ 19 1020.2R
PORT WASHINGTON  1440   24     260/  5/  9 1021.3R
MILWAUKEE LAKESH 1400   24     270/ 10/ 13   N/A
KENOSHA   LAKESH 1400   23     260/  7/ 10 1021.0R
$$

TC  - TEMPERATURE IN CELSIUS
VSB - VISIBILITY IN STATUTE MILES
WCI - WIND CHILL INDEX
HX  - HEAT INDEX




USA.gov is the U.S. government's official web portal to all federal, state and local government web resources and services.